Regional Weather Roundup
Issued by NWS Upton, NY

Current Version | Previous Version | Text Only | Print | Product List | Glossary On
Versions: 1 2 3 4 5 6 7 8 9 10 11 12 13 14 15 16 17 18 19 20 21 22 23 24 25 26 27 28 29 30 31 32 33 34 35 36 37 38 39 40 41 42 43 44 45 46 47 48 49 50
000
ASUS41 KOKX 010105
RWROKX

REGIONAL WEATHER ROUNDUP
NATIONAL WEATHER SERVICE NEW YORK NY
800 PM EST SAT JAN 31 2015

NOTE: "FAIR" INDICATES FEW OR NO CLOUDS BELOW 12,000 FEET WITH NO
SIGNIFICANT WEATHER AND/OR OBSTRUCTIONS TO VISIBILITY.

NYZ071-072-176-178-NJZ106-104-010200-
NEW YORK CITY METRO AREA


CITY           SKY/WX    TMP DP  RH WIND       PRES   REMARKS
CENTRAL PARK   FAIR      22   3  44 NW10G18   30.21R WCI  11
LAGUARDIA APRT FAIR      22   7  52 NW21G26   30.19R WCI   6
KENNEDY INTL   FAIR      24   3  40 NW18G26   30.20R WCI  10
NEWARK/LIBERTY FAIR      22   5  48 NW14G22   30.20R WCI   9
BRNX BOT. GARD   N/A    N/A N/A N/A NW15      30.19R
TETERBORO      FAIR      21   3  45 NW18G24   30.19R WCI   6
$$

NYZ177-179-078>081-010200-
LONG ISLAND NEW YORK

CITY           SKY/WX    TMP DP  RH WIND       PRES   REMARKS
FARMINGDALE    FAIR      22   2  42 NW13      30.17R WCI  10
ISLIP          FAIR      21   1  41 NW16G22   30.14R WCI   7
SHIRLEY        FAIR      21   1  41 NW12      30.15R WCI   9
WESTHAMPTON    FAIR      21   0  39 NW12      30.15R WCI   9
MONTAUK POINT    N/A     21   2  43 NW17G29   30.10R WCI   7
$$

NYZ052-065-067-010200-
HUDSON VALLEY

CITY           SKY/WX    TMP DP  RH WIND       PRES   REMARKS
WHITE PLAINS   FAIR      19   3  49 NW10      30.13R WCI   7
NEWBURGH       CLEAR     16   5  62 NW16G25   30.16R WCI   0
MONTGOMERY     FAIR      17   2  51 NW8G20    30.16R WCI   7
POUGHKEEPSIE   FAIR      16  -1  47 VRB3      30.19R
ALBANY         FAIR      12  -2  53 NW5       30.20R WCI   4
$$

NJZ001-105-106-008-010-013-015-019>022-104-010200-
NEW JERSEY

CITY           SKY/WX    TMP DP  RH WIND       PRES   REMARKS
NEWARK/LIBERTY FAIR      22   5  48 NW14G22   30.20R WCI   9
TETERBORO      FAIR      21   3  45 NW18G24   30.19R WCI   6
CALDWELL       FAIR      20   3  48 NW9G23    30.20R WCI   9
MORRISTOWN     CLEAR     23   5  46 N7G21     30.20R WCI  15
SOMERVILLE     FAIR      22   4  46 NW7       30.20R WCI  13
SUSSEX         FAIR      17   2  51 N7        30.18S WCI   8
ANDOVER          N/A     14   5  67 N3        30.18S
TRENTON        FAIR      23   5  46 W6        30.22R WCI  16
MILLVILLE      FAIR      24   8  50 W8        30.26R WCI  15
ATLANTIC CITY  FAIR      24   7  48 W13       30.24R WCI  12
WRIGHTSTOWN    FAIR      24   7  48 W9        30.20R WCI  14
TOMS RIVER     FAIR      23   9  54 W7        30.22R WCI  15
BELMAR         FAIR      21   1  42 NW6       30.20R WCI  14
$$

PAZ047>061-062-071-010200-
EASTERN PENNSYLVANIA

CITY           SKY/WX    TMP DP  RH WIND       PRES   REMARKS
PHILADELPHIA   FAIR      25   7  46 W9        30.26R WCI  15
ALLENTOWN      FAIR      22   5  48 W5        30.21R WCI  16
SCRANTON       FAIR      16   3  56 N5        30.17R WCI   9
$$

CTZ002-004>006-009-010-012-RIZ004-006-007-MAZ004-011-015-010200-
SOUTHERN NEW ENGLAND
 IN CT

CITY           SKY/WX    TMP DP  RH WIND       PRES   REMARKS
BRADLEY INTL   CLEAR     14  -5  42 NW8       30.10R WCI   3
HARTFORD       FAIR      15  -5  40 NW8       30.13R WCI   4
DANBURY        CLEAR     15  -3  44 NW6       30.15R WCI   6
WTRBRY/OXFORD  CLEAR     16  -6  38 N9        30.09R WCI   4
BRIDGEPORT     CLEAR     19   0  43 NW20G28   30.15R WCI   3
MERIDEN        CLEAR     16  -6  37 CALM      30.12R
NEW HAVEN      CLEAR     20  -1  40 NW10G18   30.13R WCI   9
CHESTER        FAIR      18  -6  35 NW10G21   30.09R WCI   6
GROTON         CLEAR     16  -4  41 NW20G29   30.09R WCI  -1
WILLIMANTIC    CLEAR     14  -7  38 W6        30.09R WCI   5

 IN RI

CITY           SKY/WX    TMP DP  RH WIND       PRES   REMARKS
PROVIDENCE     FAIR      17  -4  39 NW10G20   30.03R WCI   5
BLOCK ISLAND   FAIR      19   0  42 NW15G25   30.03R WCI   5
WESTERLY       FAIR      17  -6  35 NW8G18    30.07R WCI   7

 IN MA

CITY           SKY/WX    TMP DP  RH WIND       PRES   REMARKS
BOSTON         CLEAR     16  -4  41 NW18G26   30.01R WCI   0
WORCESTER      FAIR     N/A N/A N/A NW18G25   29.96R
WESTFIELD      CLEAR     14  -5  42 NW14G24   30.08R WCI  -1
PROVINCETOWN   CLEAR     21   9  58 NW30G44   29.93S WCI   3
NANTUCKET      CLEAR     21   1  41 NW29G36   29.95R WCI   3
$$

ANZ330-335-338-340-345-350-353-355-010200-
COASTAL MARINE OBSERVATIONS


STATION/POSITION TIME  SKY/WX   TEMP    WIND        PRES    VSBY  WAVE
                                AIR SEA DIR/SP/G                  HT/PER
                 (UTC)          (F)     (DEG/KT/KT) (MB)    (MI)  (FT/S)
NY HARB ENTRANCE 0100            27 40  310/ 25/ 31 1021.9          4/ 4
4S FIRE IS       NOT AVBL
20S FIRE ISLAND  0000               41              1020.7          6/ 6
23SW MTP         0100                                 N/A           7/ 6
HUDSON CANYON    NOT AVBL
EXECUTION ROCKS  0100            24 33  270/ 14/ 19   N/A
WESTERN LI SOUND 0100            24     290/ 16/ 21   N/A           1/ 3
CENTRAL LI SOUND 0000            22 34  320/ 19/ 27   N/A           3/ 5
EASTERN LI SOUND NOT AVBL
ROBBINS REEF     0100            23     320/ 13/ 23 1021.5
$$


>>>>>>>>>>>>>>>>>>>>>>>>>>>> KEY <<<<<<<<<<<<<<<<<<<<<<<<<<<
>                                                          <
>     SKY/WX - SKY CONDITION/PRESENT WEATHER               <
>     TMP    - TEMPERATURE IN FAHRENHEIT                   <
>     DP     - DEWPOINT IN FAHRENHEIT                      <
>     RH     - RELATIVE HUMIDITY IN PERCENT                <
>     WIND   - DIRECTION AND SPEED IN MPH                  <
>     PRES   - MEAN SEA LEVEL PRESSURE IN INCHES OF HG     <
>     WCI    - WIND CHILL INDEX                            <
>     VSB    - VISIBILITY IN MILES                         <
>     HX     - HEAT INDEX                                  <
>     TC     - TEMPERATURE IN CELSIUS                      <
>     VRB    - VARIABLE WIND DIRECTION                     <
>                                                          <
>>>>>>>>>>>>>>>>>>>>>>>>>>>> KEY <<<<<<<<<<<<<<<<<<<<<<<<<<<




USA.gov is the U.S. government's official web portal to all federal, state and local government web resources and services.